www.pogodaiklimat.ru

Погода и климат >> Архив погоды >> Катар >> Абу Самба


ПОГОДА в Абу Самба

  • Прогноз погоды в Абу Самба
  • Монитор погоды в Абу Самба

АРХИВ ПОГОДЫ в Абу Самба

Время (UTC), дата Ветер
(напр.,м/с)
 
Видим.   Явления Облачность Т
(С)
Тd
(С)
f
(%)
Тe
(С)
Тes
(С)
Комфортность P
(гПа)
Po
(гПа)
Тmin
(С)
Tmax
(С)
R
(мм)
R24
(мм)
S
(см)
21 16.07 З 7 18 км н/о +31.3 +20.1 51 +38 +38 очень
душно
997.1 996.5
00 17.07 СЗ 17 17 км н/о +33.9 +19.4 43 +40 +40 очень
душно
996.4 995.8
03 17.07 З 10 20 км н/о +32.6 +18.7 44 +38 +38 очень
душно
998.7 998.1
06 17.07 СЗ 12 20 км н/о +35.2 +24.5 54 +48 +48 опасность
перегрева
999.6 999.0 +31.3
09 17.07 СЗ 15 20 км н/о +36.0 +24.5 52 +49 +49 опасность
перегрева
999.2 998.6
12 17.07 СЗ 20 20 км н/о +37.0 +22.1 42 +45 +45 опасность
перегрева
998.5 997.9
15 17.07 С 12 18 км н/о +36.0 +19.9 39 +42 +42 опасность
перегрева
998.8 998.2
18 17.07 СЗ 10 20 км н/о +33.6 +22.0 51 +42 +42 опасность
перегрева
999.5 998.9 +37.0
21 17.07 З 7 20 км н/о +31.6 +23.0 60 +42 +42 опасность
перегрева
998.9 998.3
00 18.07 СЗ 9 20 км н/о +32.3 +18.8 45 +37 +37 очень
душно
998.1 997.5
03 18.07 СЗ 7 20 км н/о +32.0 +17.2 41 +36 +36 очень
душно
999.5 998.9
06 18.07 СЗ 9 20 км н/о +35.0 +18.3 37 +39 +39 очень
душно
1000.4 999.8 +31.1
09 18.07 С 8 20 км н/о +36.9 +23.5 46 +47 +47 опасность
перегрева
1000.0 999.4
12 18.07 С 8 20 км н/о +37.3 +22.5 43 +46 +46 опасность
перегрева
997.9 997.3
15 18.07 СЗ 7 20 км н/о +35.5 +24.6 53 +48 +48 опасность
перегрева
997.3 996.7
18 18.07 СЗ 3 20 км н/о +32.9 +27.1 72 +51 +51 опасность
перегрева
998.6 998.0 +38.2
21 18.07 Ю 4 20 км н/о +28.7 +19.8 59 +35 +35 очень
душно
997.6 997.0
00 19.07 Ю 7 20 км н/о +28.2 +16.1 48 +31 +31 душно 996.9 996.3
03 19.07 ЮВ 2 20 км н/о +26.4 +14.8 49 +29 +29 жарко 998.1 997.5
06 19.07 З 9 20 км н/о +39.7 +4.7 12 +37 +37 очень
жарко
998.1 997.5 +25.0
09 19.07 СЗ 9 20 км н/о +37.3 +20.7 38 +44 +44 опасность
перегрева
997.9 997.3
12 19.07 С 9 20 км н/о +36.2 +25.6 55 +51 +51 опасность
перегрева
996.2 995.6
15 19.07 СЗ 11 20 км н/о +34.8 +26.3 61 +51 +51 опасность
перегрева
996.4 995.8
18 19.07 С 5 20 км н/о +33.1 +27.9 74 +53 +53 опасность
перегрева
997.9 997.3 +39.7
21 19.07 СВ 9 20 км н/о +31.9 +20.9 52 +39 +39 очень
душно
998.2 997.6
00 20.07 СЗ 5 20 км н/о +31.4 +26.3 74 +47 +47 опасность
перегрева
997.9 997.3
03 20.07 СЗ 8 20 км н/о +30.9 +25.2 72 +45 +45 опасность
перегрева
998.8 998.2
06 20.07 СЗ 11 20 км н/о +34.1 +20.4 45 +41 +41 опасность
перегрева
999.8 999.2 +29.0
09 20.07 СЗ 13 18 км н/о +35.2 +25.9 59 +51 +51 опасность
перегрева
999.5 998.9
12 20.07 СЗ 17 17 км н/о +35.3 +26.4 60 +52 +52 опасность
перегрева
997.8 997.2
15 20.07 СЗ 14 20 км н/о +34.5 +25.3 59 +49 +49 опасность
перегрева
997.8 997.2
18 20.07 СЗ 10 20 км н/о +33.7 +26.6 67 +51 +51 опасность
перегрева
999.2 998.6 +35.9
21 20.07 СЗ 8 20 км н/о +32.7 +25.0 64 +46 +46 опасность
перегрева
999.2 998.6
00 21.07 СЗ 7 20 км н/о +31.5 +26.8 76 +49 +49 опасность
перегрева
998.5 997.9
03 21.07 СЗ 10 20 км н/о +30.7 +25.8 75 +46 +46 опасность
перегрева
1000.3 999.7
06 21.07 С 4 20 км н/о +32.7 +26.5 70 +50 +50 опасность
перегрева
1000.8 1000.2 +30.6
09 21.07 СЗ 7 20 км н/о +35.6 +25.3 55 +49 +49 опасность
перегрева
999.6 999.0
12 21.07 СЗ 9 20 км н/о +36.2 +27.0 59 +54 +54 опасность
перегрева
997.9 997.3
15 21.07 СЗ 11 20 км н/о +35.6 +26.4 59 +52 +52 опасность
перегрева
997.7 997.1
18 21.07 СЗ 8 18 км н/о +33.6 +29.1 77 +57 +57 опасность
перегрева
998.8 998.2 +36.9
21 21.07 СЗ 7 17 км н/о +32.5 +28.6 80 +55 +55 опасность
перегрева
998.2 997.6
00 22.07 З 6 20 км н/о +30.8 +26.5 78 +47 +47 опасность
перегрева
997.6 997.0
03 22.07 ЮВ 1 20 км н/о +28.3 +22.1 69 +37 +37 очень
душно
999.0 998.4
06 22.07 С 4 20 км н/о +35.0 +21.8 46 +43 +43 опасность
перегрева
999.0 998.4 +28.3
09 22.07 С 6 20 км н/о +37.2 +19.5 36 +42 +42 опасность
перегрева
997.6 997.0
12 22.07 СЗ 13 20 км н/о +38.6 +22.8 40 +47 +47 опасность
перегрева
995.9 995.3
15 22.07 СЗ 9 20 км н/о +36.4 +24.7 51 +49 +49 опасность
перегрева
995.6 995.0
18 22.07 С 5 20 км н/о +34.5 +27.9 69 +55 +55 опасность
перегрева
996.5 995.9 +39.2
21 22.07 Ю 5 20 км н/о +32.5 +22.7 56 +42 +42 опасность
перегрева
995.6 995.0
00 23.07 ЮЗ 7 19 км н/о +30.7 +23.2 64 +41 +41 опасность
перегрева
995.1 994.5
03 23.07 В 3 12 км н/о +30.9 +25.9 75 +46 +46 опасность
перегрева
996.7 996.1
06 23.07 СЗ 2 20 км н/о +34.7 +24.8 57 +48 +48 опасность
перегрева
997.0 996.4 +29.4
09 23.07 СЗ 6 20 км н/о +36.1 +27.1 60 +54 +54 опасность
перегрева
995.9 995.3
12 23.07 СЗ 6 17 км н/о +36.7 +29.6 67 +62 +62 опасность
перегрева
994.7 994.1
15 23.07 СЗ 10 12 км н/о +34.9 +30.8 79 +64 +64 опасность
перегрева
995.3 994.7
18 23.07 СЗ 4 11 км н/о +34.1 +30.8 83 +64 +64 опасность
перегрева
996.7 996.1 +37.0

 

Местоположение метеостанции Абу Самба (Катар): широта 24.75 долгота 50.82 высота над уровнем моря 8 м.

В архиве по умолчанию представлена погода в Абу Самба за последнюю неделю. Архивные данные за месяц целиком и за предыдущие месяцы, начиная с января 2011 года, Вы можете получить, выбрав интересующий диапазон дат из раскрывающегося списка и нажав кнопку "Ввод!".


*Определитесь, кто Вы:
робот инопланетянин человек

Внимание! Время в таблицах - всемирное. Для получения местного времени необходимо прибавить поправку, которая равна 4 ч.

Смотрите также архив погоды в соседних городах и на ближайших метеорологических станциях:

Погода в Духане (Катар) (73 км)
Погода в Доха порту (Катар) (80 км)
Погода в Дохе (Катар) (94 км)
Погода в Аэропорту Хамад (Катар) (98 км)
Погода в Эль-Хуфуфе (Саудовская Аравия) (148 км)
Погода в Бахрейне (Бахрейн) (170 км)
Погода в Дахране (Саудовская Аравия) (181 км)
Погода в Эд-Даммаме (Саудовская Аравия) (214 км)
Погода в Бендер-Дейере (Иран) (360 км)
Погода в Абу-Даби Батин аэропорту (ОАЭ) (370 км)

Пояснения к столбцам:

Ветер - указаны скорость ветра в м/с - средняя за 10 мин, порывы в срок и между сроками (в фигурных скобках) и направление, откуда дует ветер: С - северный, СВ - северо-восточный, В - восточный, ЮВ - юго-восточный, Ю - южный, ЮЗ - юго-западный, З - западный, СЗ - северо-западный.
Видимость - горизонтальная дальность видимости в метрах или километрах. При видимости от 1 до 10 км при отсутствии осадков обычно наблюдается дымка, при ухудшении видимости до 1 км и менее - туман. В сухую погоду видимость может ухудшаться дымом, пылью или мглою.
Явления - указаны атмосферные явления, наблюдавшиеся в срок или в последний час перед сроком; фигурными скобками обозначены явления, наблюдавшиеся между сроками (за 1-3 часа до срока); квадратными скобками обозначены град или гололедные отложения с указанием их диаметра в мм.
Облачность - указаны через наклонную черту общая и нижняя облачность в баллах и высота нижней границы облаков в метрах; квадратными скобками обозначены формы облаков: Ci - перистые, Cs - перисто-слоистые, Cc - перисто-кучевые, Ac - высококучевые, As - высокослоистые, Sc - слоисто-кучевые, Ns - слоисто-дождевые, Cu - кучевые, Cb - кучево-дождевые. Подробнее классификацию облаков см. в Атласе облаков (PDF).
T - Температура воздуха - температура, измеренная на высоте 2 м над землей.
Td - Температура точки росы - температура, при понижении до которой содержащийся в воздухе водяной пар достигнет насыщения.
f - Относительная влажность воздуха - влажноcть воздуха, измеренная на высоте 2 м над землей.
Te - Эффективная температура - температура, которую ощущает одетый по сезону человек в тени. Характеристика душности погоды. При расчете учитывается влияние влажности воздуха и скорости ветра на теплоощущения человека.
Tes - Эффективная температура на солнце - температура, которую ощущает человек, с поправкой на солнечный нагрев. Характеристика знойности погоды. Зависит от высоты солнца над горизонтом, облачности и скорости ветра. Ночью, в пасмурную погоду, а также при ветре 12 м/с и более поправка равна нулю.
P - Атмосферное давление - приведенное к уровню моря атмосферное давление.
Po - Атмосферное давление - измеренное на уровне метеостанции атмосферное давление.
Tmin - Минимальная температура - минимум температуры воздуха на высоте 2 м над землей.
Tmax - Максимальная температура - максимум температуры воздуха на высоте 2 м над землей.
R - Количество осадков - Количество выпавших осадков за период времени, мм. При наведении курсора мыши на число - период времени, за который выпало указанное количество осадков.
R24 - Количество осадков - Количество выпавших осадков за 24 часа, мм.
S - Снежный покров - Высота снежного покрова, см. При наведении курсора мыши на число - состояние снежного покрова и степень покрытия местности в баллах.